Location: Laura�t
(43.9341°N, 0.2497°E)
Time: 23:40:02
(UTC+00:00)

SJ 16-02 - Pass Details

Date: 03 March 2021
Orbit: 605 x 617 km, 75.0° (Epoch: 17 April)

Event Time Altitude Azimuth Distance (km) Brightness Sun altitude
Rises 21:13:13 0° 332° (NNW) 2,882 5.5 -36.1°
Reaches altitude 10° 21:15:35 10° 324° (NW) 1,975 4.6 -36.5°
Enters shadow 21:16:29 15° 319° (NW) 1,654 4.1 -36.6°
